Weather in Tulsa

United States     36°07′17″N   95°56′24″W
В апреле 2022 года жителям России запретили посещать сайт meteo.paraplan.net по решению Генеральной прокуратуры. Аудитория сайта уменьшилась в 10 раз. Владельцы сайта не видят смысла в поддержке погодного сервера в таких условиях. Сайт будет закрыт в октябре.
temp.,
°C
wind,
m/s
gust,
m/s
humid.,
%
clouds,
%
prec.,
mm/h
press.,
hPa
HPBL,
m
4 october, tue
tue401:00+18se33410 0.0 102045
04:00+16sse23552 0.0 101939
07:00+14s335636 0.0 102046
10:00+22ssw3536100 0.0 1021414
13:00+28ssw22248 0.0 10191630
16:00+31sse221937 0.0 10152732
19:00+25se342646 0.0 101654
22:00+20sse493552 0.0 1017150
5 october, wed
wed501:00+18s364071 0.0 101890
04:00+16ssw34485 0.0 101870
07:00+15ssw33505 0.0 101948
10:00+23sw35328 0.0 1020400
13:00+30sw34215 0.0 10181614
16:00+32sw3317100 0.0 10153198
19:00+27ssw332392 0.0 101619
22:00+24sw232888 0.0 101736
6 october, thu
thu601:00+21nnw233512 0.0 101844
04:00+19nnw224129 0.0 101916
07:00+18n224547 0.0 102033
10:00+24n33293 0.0 1021394
13:00+30n35195 0.0 10202061
16:00+32nnw461720 0.0 10183315
19:00+26nnw36234 0.0 101989
22:00+23nne3427100 0.0 102067
7 october, fri
fri701:00+20nne333513 0.0 102155
04:00+19nne51138100 0.0 1022332
07:00+16nne5106088 0.0 1025434
10:00+18ne794830 0.0 1027531
13:00+24ne66272 0.0 10261043
16:00+26ne56214 0.0 10231347
19:00+22ne49264 0.0 1023278
22:00+17ne4103150 0.0 1025238
8 october, sat
sat801:00+14ne48375 0.0 1026171
04:00+12ene47430 0.0 1026125
07:00+11e35473 0.0 102795
10:00+19ese3532100 0.0 1028434
13:00+26sse332614 0.0 10251249
16:00+28ssw132416 0.0 10212573
19:00+25w353495 0.0 1021203
22:00+20wsw224596 0.1 102243